Location: Unspecified
(42.3650°N, 71.1030°W)
Time: 12:51:14
(UTC+00:00)

Courier 1B - Pass Details

Date: 01 July 2024
Orbit: 962 x 1209 km, 28.3° (Epoch: 25 July)

Event Time Altitude Azimuth Distance (km) Brightness Sun altitude
Rises 04:24:43 0° 250° (WSW) 3,672 10.4 -24.3°
Enters shadow 04:25:43 - 246° (WSW) 3,364 10.1 -24.4°
Reaches altitude 10° 04:27:53 10° 236° (SW) 2,751 - -24.4°
Maximum altitude 04:32:56 23° 186° (S) 2,015 - -24.5°
Drops below altitude 10° 04:38:11 10° 137° (SE) 2,871 - -24.5°
Sets 04:41:35 0° 124° (ESE) 3,873 - -24.5°
